Regional Weather Roundup
Issued by NWS

Home | Current Version | Previous Version | Graphics & Text | Print | Product List | Glossary On
Versions: 1 2 3 4 5 6 7 8 9 10 11 12 13 14 15 16 17 18 19 20 21 22 23 24 25 26 27 28 29 30 31 32 33 34 35 36 37 38 39 40 41 42 43 44 45 46 47 48 49 50
000
ASUS45 KPSR 281610
RWRAZ

ARIZONA HOURLY REGIONAL WEATHER ROUNDUP
NATIONAL WEATHER SERVICE PHOENIX AZ
900 AM MST TUE MAR 28 2017

NOTE: FAIR INDICATES FEW OR NO CLOUDS BELOW 12,000 FEET WITH NO
SIGNIFICANT WEATHER AND/OR OBSTRUCTIONS TO VISIBILITY.

AZZ001>003-036-281700-
NORTHWEST ARIZONA

CITY           SKY/WX    TMP DP  RH WIND       PRES   REMARKS
BULLHEAD CITY  SUNNY     64  25  22 N24G30    29.99S
KINGMAN        SUNNY     52  14  22 N22G29    30.01R
$$

AZZ004>008-015-016-018-281700-
NORTH CENTRAL ARIZONA

CITY           SKY/WX    TMP DP  RH WIND       PRES   REMARKS
GRAND CANYON   SUNNY     42  27  55 N10       29.96R
WILLIAMS       SUNNY     39  30  70 N18       29.96R WCI  30
PRESCOTT       MOSUNNY   46  32  58 N20       29.94R
FLAGSTAFF      PTSUNNY   39  31  72 NE8       29.93R WCI  33
PAYSON         SUNNY     46  34  61 NE7       29.93R
PAGE           CLOUDY    53  28  38 NW14      29.92R
$$

AZZ009>014-017-281700-
NORTHEAST ARIZONA

CITY           SKY/WX    TMP DP  RH WIND       PRES   REMARKS
WINSLOW        PTSUNNY   45  39  79 NW14      29.91R
SAINT JOHNS    CLOUDY    40  36  86 NW9       29.88R WCI  34
WINDOW ROCK    MOSUNNY   44  32  62 N6        29.87S
SHOW LOW       LGT RAIN  32  32 100 NW13      29.92R WCI  22
$$

AZZ023-281700-
GREATER PHOENIX AREA

CITY           SKY/WX    TMP DP  RH WIND       PRES   REMARKS
PHOENIX        MOSUNNY   63  35  35 NW15      29.85R
BUCKEYE        SUNNY     64  34  32 NW17G24   29.88F
GLENDALE       MOSUNNY   64  36  34 NW13      29.88R
LUKE AFB       SUNNY     65  36  33 NW15      29.86R
DEER VALLEY    SUNNY     64  35  34 N15G24    29.85R
SCOTTSDALE     SUNNY     62  35  36 NW6       29.88R
MESA-FALCON    SUNNY    N/A N/A N/A VRB5      29.84R
MESA-GATEWAY   MOSUNNY   61  37  41 W8        29.87R
CHANDLER       SUNNY     63  36  36 NW8       29.87R
$$

AZZ027-028-281700-
SOUTHWEST MARICOPA COUNTY AND PINAL COUNTY

CITY           SKY/WX    TMP DP  RH WIND       PRES   REMARKS
CASA GRANDE    NOT AVBL
GILA BEND      SUNNY     66  34  31 W10       29.89S
$$

AZZ503-504-507>509-281700-
SOUTHEAST ARIZONA

CITY           SKY/WX    TMP DP  RH WIND       PRES   REMARKS
TUCSON         SUNNY     57  43  59 VRB3      29.92R
DAVIS-MONTHAN  SUNNY     57  42  57 W6        29.90R
RYAN FIELD     SUNNY     57  43  58 NW6       29.92R
NOGALES        SUNNY     57  35  43 VRB6      29.92S
SIERRA VISTA   SUNNY     53  33  46 W10G22    29.93R
DOUGLAS        MOSUNNY   49  42  77 SE3       29.93R
SAFFORD        MOSUNNY   59  33  37 NW10      29.84R
$$

AZZ020-021-025-026-031-281700-
SOUTHWEST ARIZONA

CITY           SKY/WX    TMP DP  RH WIND       PRES   REMARKS
YUMA           SUNNY     69  27  20 NW18G26   29.96R
$$

CAZ031-033-041-043-047-048-061-281700-
SOUTHERN CALIFORNIA

CITY           SKY/WX    TMP DP  RH WIND       PRES   REMARKS
DOWNTOWN L.A.  SUNNY     64  49  57 VRB6      30.03R
L.A. AIRPORT   MOSUNNY   61  49  64 S5        30.04R
SAN DIEGO      SUNNY     61  50  67 CALM      30.05R
BURBANK        SUNNY     67  22  18 N16       30.03R
ONTARIO        SUNNY     61  36  39 W5        30.04R
RIVERSIDE      SUNNY     66  25  21 NE13G24   30.04R
PALM SPRINGS   SUNNY     68  33  27 N7        30.03R
EL CENTRO NAS  SUNNY     71  23  16 NW24G31   30.00R
IMPERIAL       SUNNY     70  33  25 N21       29.97R
BLYTHE         SUNNY     69  24  18 NW21G31   29.96R
NEEDLES        SUNNY     68  27  21 N15       29.99R
$$

NVZ020-UTZ003-281700-
SOUTHERN NEVADA-UTAH

CITY           SKY/WX    TMP DP  RH WIND       PRES   REMARKS
LAS VEGAS      SUNNY     59  20  22 NW23G32   30.06S
SALT LAKE CITY MOSUNNY   42  33  70 N14       30.14R
$$

NMZ009-TXZ055-281700-
NEW MEXICO-WEST TEXAS

CITY           SKY/WX    TMP DP  RH WIND       PRES   REMARKS
ALBUQUERQUE    CLOUDY    44  38  79 NE12      29.82F
EL PASO        MOSUNNY   63  26  24 W18G29    29.81S
$$


........................KEY........................
SKY/WX - SKY CONDITION/WEATHER
TMP    - TEMPERATURE IN FAHRENHEIT
DP     - DEW POINT IN FAHRENHEIT
RH     - RELATIVE HUMIDITY IN PERCENT
WIND   - DIRECTION AND SPEED IN MILES PER HOUR (MPH)
VRB    - VARIABLE WIND DIRECTION
PRES   - MEAN SEA LEVEL PRESSURE IN INCHES OF MERCURY
         F - FALLING PRESSURE   R - RISING PRESSURE
         S - STEADY PRESSURE
VSB    - VISIBILITY IN MILES
HX     - HEAT INDEX IN FAHRENHEIT
WCI    - WIND CHILL INDEX IN FAHRENHEIT
TC     - TEMPERATURE IN CELSIUS WHICH IS ALSO KNOWN AS
         TEMPERATURE IN CENTIGRADE
AFB    - AIR FORCE BASE
         LUKE AFB IS LUKE AIR FORCE BASE
         DAVIS-MONTHAN IS DAVIS-MONTHAN AIR FORCE BASE
NAS    - NAVAL AIR STATION
         EL CENTRO NAS IS EL CENTRO NAVAL AIR STATION
N/A    - NOT AVAILABLE




USA.gov is the U.S. government's official web portal to all federal, state and local government web resources and services.